Location: Aressy
(43.2833°N, 0.3167°W)
Time: 02:42:01
(UTC+00:00)

Daily predictions for brighter satellites

Satellite Brightness Start Highest point End
(mag) Time Altitude Azimuth Time Altitude Azimuth Time Altitude Azimuth
Cosmos 1758 3.9 00:00:28 10° N 00:03:41 55° NNE 00:03:41 55° NNE
SL-08 ROCKET BODY 4.3 00:00:09 10° NNW 00:05:59 70° W 00:06:46 62° SW
Cosmos 2221 Rocket 3.7 00:06:47 68° NE 00:06:47 68° NE 00:10:45 10° NNE
Cosmos 1674 Rocket 4.2 00:06:55 47° ENE 00:06:55 47° ENE 00:10:37 10° NNE
Cosmos 1244 Rocket 4.4 00:00:05 10° N 00:06:25 82° W 00:07:36 61° S
Cosmos 1461 3.3 00:02:42 10° NNW 00:06:31 61° NNE 00:06:31 61° NNE
Nadezhda 2 Rocket 4.3 00:02:02 10° N 00:08:12 77° W 00:09:13 62° SSW
Cosmos 1674 3.6 00:10:51 46° N 00:10:51 46° N 00:13:35 10° N
Cosmos 1238 Rocket 4.5 00:10:44 10° N 00:12:06 24° N 00:12:06 24° N
ATLAS CENTAUR R/B 2.4 00:10:18 10° NW 00:13:59 42° W 00:13:59 42° W
SL-16 R/B 4.4 00:16:08 11° ESE 00:17:06 12° E 00:19:03 10° ENE
Cosmos 2322 Rocket 4.5 00:16:20 10° W 00:20:06 18° NW 00:23:53 10° N
Cosmos 1980 4.2 00:20:38 43° ESE 00:20:59 44° ESE 00:26:18 10° NE
Cosmos 2333 Rocket 3.1 00:19:42 31° W 00:21:36 41° WNW 00:26:58 10° NNE
Cosmos 1378 Rocket 3.7 00:22:19 67° ENE 00:22:19 67° ENE 00:26:24 10° NNE
Cosmos 2322 4.1 00:20:48 44° WSW 00:22:12 56° WNW 00:27:51 10° NNE
ATLAS 5 CENTAUR R/B 3.1 00:10:37 10° NW 00:23:08 72° NE 00:24:40 43° ESE
CZ-4C R/B 3.0 00:16:26 10° NW 00:23:51 90° SW 00:27:53 35° SE
Cosmos 1844 Rocket 4.3 00:22:51 10° NW 00:26:32 21° W 00:26:32 21° W
USA 215 4.2 00:22:06 10° NE 00:28:15 45° NNW 00:34:24 10° W
NOSS 0 Rocket 3.9 00:29:23 58° SSE 00:30:26 69° ESE 00:36:39 10° NNE
PSLV R/B 3.9 00:30:44 10° N 00:35:00 56° WNW 00:35:00 56° WNW
Cosmos 2151 Rocket 4.0 00:37:04 10° NNW 00:40:53 50° WNW 00:40:53 50° WNW
ADEOS Rocket 3.6 00:42:18 35° WSW 00:42:40 35° W 00:48:01 10° NNW
Cosmos 1745 Rocket 3.9 00:36:56 10° N 00:43:12 85° W 00:44:35 57° S
USA 308 3.5 00:44:47 47° ENE 00:44:47 47° ENE 00:47:54 10° ENE
Cosmos 839 Rocket 4.4 00:37:48 10° NNW 00:44:12 71° NE 00:49:12 22° SE
Cosmos 2219 Rocket 3.3 00:42:56 27° W 00:44:55 35° NW 00:50:03 10° N
Okean 2 Rocket 3.9 00:41:23 10° NNW 00:45:13 41° WNW 00:45:13 41° WNW
Meteor 2-12 Rocket 4.4 00:44:41 10° N 00:50:47 79° E 00:52:26 51° SSE
Meteor 1-16 Rocket 4.3 00:45:04 10° NNW 00:51:00 73° W 00:52:02 59° SSW
GP-B 3.3 00:53:26 10° N 00:57:50 59° E 00:58:07 57° ESE
Lacrosse 5 2.8 00:58:31 33° ESE 00:58:31 33° ESE 01:02:48 10° ENE
CZ-2D R/B 3.3 00:56:09 10° NNE 01:00:58 33° E 01:02:28 28° SE
SL-14 R/B 3.6 01:02:27 58° NW 01:02:27 58° NW 01:05:48 10° N
Cosmos 1300 3.0 00:58:08 10° N 01:01:27 63° NNE 01:01:27 63° NNE
USA 267 3.4 01:02:14 47° SSW 01:03:03 49° SW 01:09:23 10° WNW
ASTEX 1 4.5 01:00:14 10° NNW 01:04:33 32° WNW 01:05:07 31° W
Cosmos 883 Rocket 4.4 01:04:14 51° SSW 01:05:58 86° W 01:12:21 10° N
Cosmos 371 Rocket 3.4 01:06:03 59° WSW 01:06:35 64° WNW 01:11:25 10° NNE
Cosmos 2150 Rocket 4.1 01:06:08 54° WSW 01:06:59 62° WNW 01:12:07 10° NNE
USA 305 3.0 01:07:08 68° NW 01:07:12 68° NW 01:11:23 10° NE
NOSS 2-2 (C) 4.3 01:04:14 10° NW 01:09:32 78° WSW 01:12:46 34° SSE
USA 229 DEB 3.9 01:03:47 10° NW 01:11:12 72° WSW 01:15:06 33° SSE
USA 229 3.9 01:03:53 10° NW 01:11:17 73° WSW 01:15:14 32° SSE
Cosmos 2237 Rocket 2.2 01:11:28 54° SW 01:12:48 78° WNW 01:18:31 10° NNE
COSMOS 2428 4.0 01:12:16 23° W 01:14:40 31° NW 01:19:41 10° N
Cosmos 405 Rocket 4.3 01:18:03 24° WNW 01:18:03 24° WNW 01:20:49 10° NNW
Cosmos 304 Rocket 3.6 01:17:17 67° SW 01:17:53 80° WNW 01:22:44 10° NNE
SL-16 R/B 3.3 01:14:42 16° SE 01:19:30 48° ENE 01:25:26 10° N
Cosmos 1437 Rocket 4.1 01:16:56 10° NNW 01:19:16 27° WNW 01:19:16 27° WNW
Cosmos 1125 Rocket 4.1 01:20:00 39° W 01:21:10 45° WNW 01:26:11 10° N
Lacrosse 5 rocket 2.8 01:21:54 25° ESE 01:21:54 25° ESE 01:24:31 10° ENE
Okean 1 Rocket 3.9 01:20:17 10° NNW 01:24:05 36° W 01:24:05 36° W
SME Rocket 3.0 01:24:34 65° SSE 01:25:08 84° ENE 01:30:01 10° NNW
Cosmos 1953 3.6 01:23:34 10° NNW 01:26:26 29° WNW 01:26:26 29° WNW
Resurs 1-4 Rocket 2.3 01:25:03 10° NNE 01:30:17 62° ESE 01:31:56 41° SSE
Cosmos 1943 Rocket 2.9 01:28:18 10° NNW 01:33:52 53° ENE 01:39:23 10° SE
MOZ.5/SAFIR/RUBIN 5/SL-8 3.8 01:33:59 57° SW 01:34:33 62° WSW 01:39:16 10° NNW
Cosmos 1709 Rocket 4.2 01:31:41 10° NNW 01:37:36 52° W 01:39:17 41° SW
Cosmos 2315 Rocket 4.2 01:35:34 40° SW 01:37:43 59° WNW 01:44:01 10° N
Cosmos 2184 Rocket 4.3 01:38:19 10° N 01:44:33 64° E 01:48:45 21° SSE
Cosmos 2278 Rocket 2.8 01:39:48 10° NW 01:44:55 36° WSW 01:45:23 35° WSW
ADEOS II 2.9 01:41:08 10° NNE 01:46:10 45° E 01:48:40 26° SSE
IDEFIX/ARIANE 42P 3.7 01:42:09 10° NNE 01:47:03 38° E 01:49:52 22° SSE
USA 306 4.0 01:47:34 25° WNW 01:49:22 38° NNW 01:53:18 10° NE
Cosmos 2084 Rocket 3.1 01:49:15 64° W 01:49:37 70° NW 01:53:25 10° NNE
USA 307 3.9 01:51:04 27° W 01:52:49 41° NNW 01:56:49 10° NE
Thor Agena Rocket 4.2 01:49:23 10° N 01:54:23 44° WNW 01:56:09 33° WSW
ERBS 3.6 01:54:54 28° NW 01:55:12 28° NW 01:57:56 10° NNE
NPP 3.6 01:52:53 10° NNE 01:58:19 88° ESE 02:00:36 36° SSW
Cosmos 2369 Rocket 3.8 01:53:55 10° N 01:58:59 34° NE 02:04:01 10° ESE
SL-16 R/B 2.1 01:58:00 38° SSW 02:00:17 87° ESE 02:06:00 10° NNE
Cosmos 1455 Rocket 3.6 01:58:29 10° NNW 02:02:41 41° W 02:03:15 39° WSW
CZ-4 R/B 3.8 01:58:37 10° N 02:03:14 66° WNW 02:04:41 42° SW
EO 1 Del DPAF 3.9 02:00:56 10° NNE 02:04:17 41° E 02:05:16 32° SE
Meteor 1-28 Rocket 3.9 02:03:36 24° SE 02:05:34 52° ENE 02:09:13 10° N
COSMOS 2455 3.2 02:04:48 29° S 02:07:46 58° ESE 02:13:40 10° NE
Cosmos 1536 Rocket 3.7 02:08:03 34° S 02:09:52 70° E 02:14:15 10° NNE
CZ-4C R/B 4.2 02:06:11 10° WNW 02:11:58 23° WSW 02:12:59 22° WSW
Cosmos 1975 Rocket 4.3 02:16:47 25° W 02:17:47 27° WNW 02:21:36 10° NNW
Nadezhda 1 Rocket 4.1 02:15:05 24° S 02:19:13 83° E 02:25:33 10° N
Meteor 1-24 Rocket 4.0 02:17:03 31° SW 02:19:27 50° WNW 02:24:47 10° N
UNK 3.7 02:19:10 32° S 02:21:09 63° W 02:25:44 10° NNW
USA 308 4.5 02:20:31 13° W 02:23:39 29° NNW 02:27:21 10° NE
MSX 4.1 02:18:30 10° NNE 02:24:14 63° ESE 02:28:25 19° S
Cosmos 1025 Rocket 4.2 02:23:55 25° W 02:24:58 27° WNW 02:28:41 10° NNW
MOS 1 Rocket 3.0 02:23:22 32° S 02:25:15 65° W 02:29:31 10° NNW
YAOGAN 11 4.2 02:23:45 32° S 02:25:40 60° WSW 02:30:08 10° NNW
Cosmos 1455 2.3 02:22:52 10° NNW 02:26:30 53° W 02:27:23 41° SW
Cosmos 1271 Rocket 2.7 02:26:29 10° N 02:30:20 84° E 02:32:45 22° SSE
CZ-2D R/B 3.1 02:36:10 10° N 02:40:58 34° WNW 02:43:47 20° WSW
Lacrosse 5 2.5 02:37:42 20° WSW 02:41:05 50° NW 02:46:03 10° NE
Helios 1B rocket 3.8 02:41:31 10° NNE 02:45:14 34° E 02:48:57 10° SSE
Cosmos 2341 Rocket 4.4 02:41:00 10° N 02:47:23 67° E 02:53:44 10° SSE
BREEZE-M DEB (TANK) 3.3 02:47:13 22° SW 02:50:06 47° SSE 02:52:39 10° ENE
Cosmos 2154 Rocket 4.2 02:44:36 10° NNW 02:50:47 56° W 02:56:00 15° SSW
Cosmos 407 Rocket 4.4 02:47:40 10° N 02:52:53 51° ENE 02:57:59 10° SE
Cosmos 1943 3.5 02:50:42 16° S 02:55:19 65° ESE 03:00:58 10° NNE
Cosmos 1328 4.2 02:52:13 14° S 02:55:33 61° E 02:59:29 10° NNE
Helios 1A 3.4 02:53:26 21° SSW 02:55:55 44° W 02:59:58 10° NNW
Cosmos 2237 Rocket 4.3 02:54:40 10° WNW 02:57:51 15° NW 03:01:03 10° N
Lacrosse 5 rocket 2.1 02:57:25 17° W 03:00:02 41° NW 03:03:57 10° NE
SL-16 R/B 3.4 02:59:47 18° SW 03:03:15 29° W 03:08:37 10° NW
Cosmos 1140 Rocket 3.9 02:58:37 10° NNW 03:03:53 67° ENE 03:09:04 10° SSE
Lacrosse 4 Rocket 4.0 03:05:12 10° SE 03:07:46 16° ESE 03:10:18 10° ENE
Cosmos 1892 Rocket 3.9 03:04:53 10° S 03:09:18 70° E 03:13:46 10° NNE
Resurs 1-4 Rocket 3.8 03:05:57 10° NNW 03:09:36 19° WNW 03:13:01 11° WSW
SeaSat 1 4.4 03:06:27 10° NE 03:10:26 24° ESE 03:14:24 10° SSE
Cosmos 1703 4.2 03:11:07 18° SW 03:13:26 33° WNW 03:17:01 10° N
Cosmos 1726 Rocket 3.5 03:09:39 10° N 03:14:06 89° W 03:18:29 10° S
Cosmos 1943 Rocket 3.3 03:12:50 10° NW 03:17:12 23° W 03:20:53 13° SSW
Cosmos 2263 4.2 03:12:30 10° NNW 03:18:13 82° WSW 03:23:56 10° SSE
NOSS 3-3 (A) 3.9 03:13:34 15° SW 03:18:18 86° NW 03:24:46 10° NE
NOSS 3-3 (C) 3.9 03:13:40 15° SW 03:18:24 87° NW 03:24:51 10° NE
FENGYUN 3A 4.1 03:13:05 10° NNE 03:18:27 62° ESE 03:23:46 10° S
Cosmos 1023 Rocket 4.5 03:16:52 10° NNW 03:22:11 82° WSW 03:27:25 10° SSE
Cosmos 1825 4.3 03:21:09 10° SE 03:24:13 25° E 03:27:19 10° NE
ADEOS II 3.4 03:21:21 10° N 03:25:34 25° WNW 03:29:36 11° WSW
SL-24 DEB 4.3 03:21:00 10° S 03:25:44 88° W 03:30:28 10° N
GPS 2-04 Rocket1 4.3 03:24:12 12° SSW 03:25:59 16° SSE 03:28:15 10° ESE
IDEFIX/ARIANE 42P 3.7 03:21:57 10° N 03:26:28 30° WNW 03:30:40 11° WSW
Cosmos 1624 Rocket 4.4 03:22:30 10° S 03:27:45 65° ESE 03:33:01 10° NNE
ARIANE 5 R/B 3.3 03:23:44 10° NNE 03:28:40 51° E 03:33:31 10° S
CBERS-1 4.1 03:26:31 10° N 03:31:36 65° WNW 03:36:38 10° SSW
Cosmos 2218 Rocket 4.0 03:29:42 10° N 03:35:57 77° W 03:42:14 10° S
DNEPR-1 R/B 3.6 03:32:36 12° SW 03:36:30 71° NW 03:41:08 10° NNE
MOS 1-B Rocket 3.9 03:31:22 10° S 03:36:55 64° WSW 03:42:38 10° NNW
Cosmos 2056 Rocket 3.6 03:34:11 10° SSW 03:39:20 82° ESE 03:44:38 10° NNE
Cosmos 1892 2.8 03:36:43 10° S 03:40:30 80° E 03:44:16 10° N
Cosmos 2228 4.3 03:37:06 10° NW 03:40:32 23° W 03:43:56 10° SW
DEBRIS 3.7 03:33:25 10° WNW 03:41:50 66° NNE 03:44:42 10° ESE
DELTA 2 DEB (DPAF) 4.3 03:37:42 10° SSE 03:42:07 80° ENE 03:46:33 10° N
Cosmos 2369 Rocket 2.7 03:37:54 10° NW 03:43:01 37° WSW 03:48:06 10° S
IRS-1D 4.5 03:38:24 10° N 03:43:12 35° WNW 03:47:55 10° SW
SL-16 R/B 4.1 03:41:27 10° W 03:45:11 18° NW 03:48:56 10° N
OAO 2 Rocket 4.5 03:41:23 10° SW 03:45:32 27° S 03:49:40 10° ESE
Cosmos 2251 Rocket 4.3 03:42:25 10° NW 03:46:59 31° W 03:51:33 10° SSW
Cosmos 2058 Rocket 3.1 03:44:47 10° NNW 03:49:08 64° W 03:53:25 10° S
Cosmos 2181 Rocket 4.2 03:44:15 10° SSW 03:50:22 56° W 03:56:27 10° N
[s.n.52708] 2.8 03:48:20 10° SW 03:51:07 67° SE 03:53:56 10° ENE
[s.n.52707] 2.7 03:48:26 10° SW 03:51:14 67° SE 03:54:03 10° ENE
[s.n.52703] 2.8 03:48:32 10° SW 03:51:21 67° SE 03:54:09 10° ENE
[s.n.52705] 2.7 03:48:39 10° SW 03:51:27 68° SE 03:54:16 10° ENE
[s.n.52706] 2.7 03:48:45 10° SW 03:51:34 68° SE 03:54:23 10° ENE
[s.n.52701] 2.7 03:48:52 10° SW 03:51:40 68° SE 03:54:29 10° ENE
[s.n.52704] 2.7 03:48:59 10° SW 03:51:46 68° SE 03:54:36 10° ENE
[s.n.52699] 2.7 03:49:06 10° SW 03:51:54 68° SE 03:54:42 10° ENE
Cosmos 1656 Rocket 4.1 03:47:00 10° NW 03:51:59 39° WSW 03:56:58 10° S
[s.n.52702] 2.7 03:49:13 10° SW 03:52:00 69° SE 03:54:50 10° ENE
[s.n.52697] 2.7 03:49:19 10° SW 03:52:07 69° SE 03:54:56 10° ENE
[s.n.52700] 2.7 03:49:25 10° SW 03:52:13 69° SE 03:55:03 10° ENE
[s.n.52695] 2.7 03:49:33 10° SW 03:52:21 69° SE 03:55:10 10° ENE
[s.n.52698] 2.7 03:49:39 10° SW 03:52:27 69° SE 03:55:17 10° ENE
[s.n.52693] 2.7 03:49:46 10° SW 03:52:34 70° SE 03:55:24 10° ENE
[s.n.52696] 2.7 03:49:52 10° SW 03:52:41 70° SE 03:55:30 10° ENE
[s.n.52691] 2.7 03:49:59 10° SW 03:52:47 70° SE 03:55:37 10° ENE
[s.n.52689] 2.7 03:50:06 10° SW 03:52:54 70° SE 03:55:44 10° ENE
IRS-P3 4.2 03:47:35 10° NNE 03:52:57 88° WNW 03:58:17 10° SSW
[s.n.52694] 2.7 03:50:13 10° SW 03:53:01 71° SE 03:55:51 10° ENE
[s.n.52692] 2.7 03:50:19 10° SW 03:53:08 71° SE 03:55:57 10° ENE
[s.n.52687] 2.7 03:50:26 10° SW 03:53:14 71° SE 03:56:04 10° ENE
[s.n.52685] 2.7 03:50:33 10° SW 03:53:21 71° SE 03:56:11 10° ENE
Cosmos 2098 4.1 03:50:24 10° NNW 03:53:27 67° W 03:56:25 10° S
[s.n.52690] 2.7 03:50:39 10° SW 03:53:28 71° SE 03:56:17 10° ENE
Cosmos 1408 2.7 03:49:58 10° SSW 03:53:33 57° W 03:57:08 10° N
[s.n.52688] 2.7 03:50:46 10° SW 03:53:35 72° SE 03:56:25 10° ENE
[s.n.52683] 2.7 03:50:52 10° SW 03:53:41 72° SE 03:56:31 10° ENE
[s.n.52686] 2.7 03:50:59 10° SW 03:53:49 72° SE 03:56:38 10° ENE
[s.n.52681] 2.7 03:51:06 10° SW 03:53:55 72° SE 03:56:46 10° ENE
[s.n.52679] 2.7 03:51:13 10° SW 03:54:02 73° SE 03:56:52 10° ENE
COSMOS 2455 4.1 03:48:54 10° WSW 03:54:04 29° NW 03:59:15 10° NNE
[s.n.52684] 2.7 03:51:20 10° SW 03:54:09 73° SE 03:56:59 10° ENE
[s.n.52682] 2.7 03:51:27 10° SW 03:54:16 73° SE 03:57:06 10° ENE
[s.n.52677] 2.7 03:51:34 10° SW 03:54:23 73° SE 03:57:12 10° ENE
Cosmos 1626 Rocket 3.9 03:50:06 10° S 03:54:29 71° E 03:58:51 10° NNE
[s.n.52680] 2.7 03:51:41 10° SW 03:54:30 73° SE 03:57:20 10° ENE
Cosmos 1190 Rocket 4.0 03:49:16 10° NNW 03:54:32 70° WSW 03:59:48 10° S
[s.n.52675] 2.7 03:51:47 10° SW 03:54:36 74° SE 03:57:27 10° ENE
[s.n.52678] 2.7 03:51:55 10° SW 03:54:43 74° SE 03:57:34 10° ENE
Cosmos 1821 Rocket 4.4 03:50:19 10° N 03:56:45 76° E 04:03:08 10° SSE
